Location: Ailly
(50.0793°N, 1.9944°E)
Time: 11:48:18
(UTC+00:00)

Cosmos 2366 rocket - Pass Details

Date: 15 January 2026
Orbit: 955 x 995 km, 82.9° (Epoch: 15 February)

Event Time Altitude Azimuth Distance (km) Brightness Sun altitude
Rises 06:22:37 0° 177° (S) 3,635 7.3 -12.8°
Reaches altitude 10° 06:25:07 10° 175° (S) 2,697 6.6 -12.4°
Maximum altitude 06:31:13 67° 95° (E) 1,055 4.5 -11.4°
Drops below altitude 10° 06:37:26 10° 14° (NNE) 2,744 6.3 -10.5°
Sets 06:39:59 0° 12° (NNE) 3,702 6.9 -10.1°
